Weather History for Cumberland, WI

Change the Weather History Date:

Monday, February 11, 2013

  Actual Average (KRPD) Record (KRPD)
Temperature  
Mean Temperature 26 °F -  
Max Temperature 32 °F 26 °F 44 °F (2005)
Min Temperature 19 °F 7 °F -29 °F (2014)
Degree Days  
Heating Degree Days 40    
Moisture  
Dew Point 22 °F    
Average Humidity 84    
Maximum Humidity 100    
Minimum Humidity 74    
Precipitation  
Precipitation 0.00 in - - ()
Sea Level Pressure  
Sea Level Pressure 29.64 in    
Wind  
Wind Speed 14 mph (NW)    
Max Wind Speed 21 mph    
Max Gust Speed 28 mph    
Visibility 7 miles    
Events Snow    
Averages and records for this station are not official NWS values.
T = Trace of Precipitation, MM = Missing Value Source: NWS Daily Summary

Daily Weather History Graph

Daily Weather History Graph

Search for Another Location

Airport:

Trip Planner

Search our weather history database for the weather conditions in past years. The results will help you decide how hot, cold, wet, or windy it might be!

Date:

Astronomy

Feb. 11, 2013 Rise Set
Actual Time 7:15 AM CST 5:29 PM CST
Civil Twilight 6:44 AM CST 6:00 PM CST
Nautical Twilight 6:09 AM CST 6:35 PM CST
Astronomical Twilight 5:35 AM CST 7:09 PM CST
Moon 7:32 AM CST (2/11) 7:35 PM CST (2/11)
Length of Visible Light 11h 15m
Length of Day
10h 14m
Waxing Crescent, 3% of the Moon is Illuminated
Feb 11
Waxing Crescent
Feb 17
First Quarter
Feb 25
Full
Mar 4
Last Quarter
Mar 11
New

Hourly Weather History & Observations

Time (CST) Temp. Windchill Dew Point Humidity Pressure Visibility Wind Dir Wind Speed Gust Speed Precip Events Conditions
12:15 AM 32.0 °F 24.8 °F 32.0 °F 100% 29.25 in 7.0 mi North 8.1 mph - N/A   Overcast
12:35 AM 32.0 °F 23.6 °F 32.0 °F 100% 29.25 in 7.0 mi NNW 10.4 mph - N/A   Overcast
12:55 AM 32.0 °F 23.0 °F 32.0 °F 100% 29.25 in 4.0 mi NNW 11.5 mph - N/A Snow Light Snow
1:15 AM 32.0 °F 23.0 °F 32.0 °F 100% 29.25 in 4.0 mi NNW 11.5 mph - N/A Snow Light Snow
1:35 AM 32.0 °F 22.1 °F 30.2 °F 93% 29.26 in 2.0 mi NNW 13.8 mph - N/A Snow Light Snow
1:55 AM 32.0 °F 22.1 °F 30.2 °F 93% 29.27 in 2.5 mi NNW 13.8 mph - N/A Snow Light Snow
2:15 AM 32.0 °F 23.6 °F 30.2 °F 93% 29.28 in 2.5 mi NW 10.4 mph - N/A Snow Light Snow
2:35 AM 32.0 °F 22.5 °F 30.2 °F 93% 29.29 in 2.5 mi NNW 12.7 mph 18.4 mph N/A Snow Light Snow
2:55 AM 30.2 °F 19.8 °F 28.4 °F 93% 29.30 in 3.0 mi NW 13.8 mph - N/A Snow Light Snow
3:15 AM 30.2 °F 18.5 °F 28.4 °F 93% 29.30 in 3.0 mi NNW 17.3 mph - N/A Snow Light Snow
3:35 AM 32.0 °F 20.8 °F 30.2 °F 93% 29.31 in 5.0 mi NW 17.3 mph 23.0 mph N/A Snow Light Snow
3:55 AM 32.0 °F 21.2 °F 30.2 °F 93% 29.32 in 4.0 mi NNW 16.1 mph - N/A Snow Light Snow
4:15 AM 32.0 °F 20.8 °F 30.2 °F 93% 29.33 in 1.8 mi NNW 17.3 mph 23.0 mph N/A Snow Light Snow
4:35 AM 32.0 °F 21.2 °F 30.2 °F 93% 29.36 in 2.5 mi NW 16.1 mph - N/A Snow Light Snow
4:55 AM 30.2 °F 18.5 °F 28.4 °F 93% 29.37 in 3.0 mi NW 17.3 mph 25.3 mph N/A Snow Light Snow
5:15 AM 30.2 °F 17.8 °F 26.6 °F 86% 29.39 in 7.0 mi NW 19.6 mph 24.2 mph N/A   Overcast
5:55 AM 28.4 °F 17.0 °F 26.6 °F 93% 29.42 in 5.0 mi NW 15.0 mph 23.0 mph N/A   Overcast
6:15 AM 28.4 °F 18.0 °F 26.6 °F 93% 29.44 in 4.0 mi NW 12.7 mph - N/A Snow Light Snow
6:35 AM 28.4 °F 17.0 °F 26.6 °F 93% 29.46 in 5.0 mi NW 15.0 mph 19.6 mph N/A Snow Light Snow
6:55 AM 28.4 °F 17.0 °F 26.6 °F 93% 29.47 in 5.0 mi NW 15.0 mph - N/A Snow Light Snow
7:15 AM 28.4 °F 18.0 °F 26.6 °F 93% 29.48 in 2.5 mi NW 12.7 mph - N/A Snow Light Snow
7:35 AM 28.4 °F 18.0 °F 24.8 °F 86% 29.50 in 4.0 mi NW 12.7 mph - N/A Snow Light Snow
7:55 AM 28.4 °F 18.0 °F 24.8 °F 86% 29.52 in 4.0 mi NW 12.7 mph 20.7 mph N/A Snow Light Snow
8:15 AM 26.6 °F 13.8 °F 23.0 °F 86% 29.53 in 4.0 mi NW 17.3 mph 23.0 mph N/A Snow Light Snow
8:35 AM 26.6 °F 14.3 °F 23.0 °F 86% 29.54 in 4.0 mi NW 16.1 mph 21.9 mph N/A Snow Light Snow
8:55 AM 26.6 °F 14.7 °F 23.0 °F 86% 29.56 in 5.0 mi NW 15.0 mph 23.0 mph N/A   Overcast
9:15 AM 26.6 °F 13.4 °F 23.0 °F 86% 29.57 in 5.0 mi NW 18.4 mph 24.2 mph N/A   Overcast
9:35 AM 26.6 °F 14.7 °F 21.2 °F 80% 29.59 in 5.0 mi NW 15.0 mph 23.0 mph N/A   Overcast
9:55 AM 26.6 °F 13.8 °F 21.2 °F 80% 29.60 in 5.0 mi NW 17.3 mph 21.9 mph N/A   Overcast
10:15 AM 26.6 °F 15.2 °F 21.2 °F 80% 29.62 in 10.0 mi NW 13.8 mph 23.0 mph N/A   Overcast
10:35 AM 26.6 °F 13.1 °F 21.2 °F 80% 29.63 in 10.0 mi WNW 19.6 mph 25.3 mph N/A   Overcast
10:55 AM 26.6 °F 14.3 °F 19.4 °F 74% 29.64 in 10.0 mi NW 16.1 mph - N/A   Overcast
11:15 AM 26.6 °F 14.3 °F 19.4 °F 74% 29.66 in 10.0 mi WNW 16.1 mph 23.0 mph N/A   Overcast
11:35 AM 24.8 °F 10.3 °F 19.4 °F 80% 29.67 in 10.0 mi WNW 20.7 mph 24.2 mph N/A   Overcast
11:55 AM 24.8 °F 11.1 °F 19.4 °F 80% 29.68 in 10.0 mi WNW 18.4 mph 27.6 mph N/A   Overcast
12:15 PM 24.8 °F 11.5 °F 19.4 °F 80% 29.69 in 10.0 mi WNW 17.3 mph 25.3 mph N/A   Overcast
12:35 PM 26.6 °F 15.2 °F 19.4 °F 74% 29.69 in 7.0 mi NW 13.8 mph 21.9 mph N/A   Overcast
12:55 PM 26.6 °F 14.7 °F 19.4 °F 74% 29.70 in 10.0 mi WNW 15.0 mph 26.5 mph N/A   Overcast
1:15 PM 26.6 °F 14.7 °F 19.4 °F 74% 29.71 in 10.0 mi WNW 15.0 mph 25.3 mph N/A   Overcast
1:35 PM 26.6 °F 13.1 °F 19.4 °F 74% 29.72 in 10.0 mi WNW 19.6 mph 25.3 mph N/A   Overcast
1:55 PM 26.6 °F 14.3 °F 19.4 °F 74% 29.73 in 10.0 mi WNW 16.1 mph 26.5 mph N/A   Overcast
2:15 PM 26.6 °F 13.1 °F 19.4 °F 74% 29.74 in 10.0 mi WNW 19.6 mph 25.3 mph N/A Snow Light Snow
2:35 PM 26.6 °F 13.1 °F 19.4 °F 74% 29.75 in 10.0 mi West 19.6 mph 25.3 mph N/A   Overcast
2:55 PM 24.8 °F 11.1 °F 19.4 °F 80% 29.77 in 7.0 mi WNW 18.4 mph 26.5 mph N/A Snow Light Snow
3:15 PM 24.8 °F 11.1 °F 19.4 °F 80% 29.77 in 7.0 mi WNW 18.4 mph 24.2 mph N/A Snow Light Snow
3:35 PM 24.8 °F 11.5 °F 19.4 °F 80% 29.78 in 10.0 mi WNW 17.3 mph 24.2 mph N/A   Overcast
3:55 PM 24.8 °F 12.9 °F 19.4 °F 80% 29.79 in 10.0 mi WNW 13.8 mph 23.0 mph N/A   Overcast
4:55 PM 24.8 °F 12.4 °F 19.4 °F 80% 29.81 in 10.0 mi WNW 15.0 mph - N/A   Overcast
5:15 PM 24.8 °F 11.9 °F 19.4 °F 80% 29.82 in 10.0 mi WNW 16.1 mph 21.9 mph N/A   Overcast
5:35 PM 24.8 °F 11.1 °F 19.4 °F 80% 29.84 in 10.0 mi WNW 18.4 mph 24.2 mph N/A   Overcast
5:55 PM 24.8 °F 11.5 °F 19.4 °F 80% 29.84 in 10.0 mi West 17.3 mph 23.0 mph N/A   Overcast
6:15 PM 24.8 °F 11.9 °F 19.4 °F 80% 29.86 in 10.0 mi WNW 16.1 mph 23.0 mph N/A   Overcast
6:35 PM 24.8 °F 12.4 °F 19.4 °F 80% 29.86 in 10.0 mi WNW 15.0 mph 23.0 mph N/A   Overcast
6:55 PM 23.0 °F 10.1 °F 19.4 °F 86% 29.87 in 10.0 mi WNW 15.0 mph 25.3 mph N/A   Overcast
7:15 PM 23.0 °F 8.7 °F 17.6 °F 80% 29.87 in 10.0 mi West 18.4 mph 21.9 mph N/A   Overcast
7:35 PM 23.0 °F 9.6 °F 17.6 °F 80% 29.88 in 10.0 mi West 16.1 mph - N/A   Overcast
7:55 PM 23.0 °F 12.4 °F 17.6 °F 80% 29.89 in 10.0 mi WNW 10.4 mph 19.6 mph N/A   Overcast
8:15 PM 23.0 °F 11.7 °F 17.6 °F 80% 29.89 in 10.0 mi WNW 11.5 mph 17.3 mph N/A   Overcast
8:35 PM 23.0 °F 9.6 °F 17.6 °F 80% 29.89 in 10.0 mi WNW 16.1 mph 20.7 mph N/A   Overcast
8:55 PM 23.0 °F 10.6 °F 17.6 °F 80% 29.91 in 10.0 mi NW 13.8 mph - N/A   Overcast
9:15 PM 23.0 °F 11.7 °F 17.6 °F 80% 29.91 in 10.0 mi WNW 11.5 mph - N/A   Overcast
9:35 PM 21.2 °F 10.9 °F 17.6 °F 86% 29.92 in 10.0 mi West 9.2 mph - N/A   Overcast
9:55 PM 21.2 °F 10.1 °F 17.6 °F 86% 29.93 in 10.0 mi WNW 10.4 mph 17.3 mph N/A   Overcast
10:15 PM 21.2 °F 10.9 °F 15.8 °F 80% 29.93 in 10.0 mi WNW 9.2 mph 18.4 mph N/A   Overcast
10:35 PM 21.2 °F 7.8 °F 15.8 °F 80% 29.94 in 10.0 mi West 15.0 mph - N/A   Overcast
10:55 PM 21.2 °F 10.9 °F 14.0 °F 74% 29.94 in 10.0 mi WNW 9.2 mph 19.6 mph N/A   Overcast
11:15 PM 21.2 °F 8.9 °F 14.0 °F 74% 29.95 in 10.0 mi WNW 12.7 mph - N/A Snow Light Snow
11:35 PM 19.4 °F 5.0 °F 14.0 °F 80% 29.95 in 7.0 mi West 16.1 mph - N/A   Overcast
11:55 PM 19.4 °F 7.2 °F 14.0 °F 80% 29.95 in 10.0 mi West 11.5 mph - N/A Snow Light Snow